FW1924 Weather Reports


Display with metric or nautical units.
time (UTC)temp
F
wind
direction
speed
MPH
gust
MPH
rain 1hr
in
rain 24hr
in
rain mn
in
humidity
%
barometer
mb
20260905123043 65 193 6.0 15.0 0.00 0.00 0.00 29 1004.1
20260905121531 65 226 5.0 11.0 0.00 0.00 0.00 30 1004.0
20260905120029 65 221 5.0 11.0 0.00 0.00 0.00 32 1003.8
20260905114520 65 244 6.0 10.0 0.00 0.00 0.00 33 1003.9
20260905113010 65 188 6.0 11.0 0.00 0.00 0.00 35 1003.8
20260905111501 66 194 5.0 10.0 0.00 0.00 0.00 34 1003.8
20260905110058 66 202 6.0 10.0 0.00 0.00 0.00 33 1003.7
20260905104549 67 188 6.0 11.0 0.00 0.00 0.00 33 1003.6
20260905103033 67 186 6.0 12.0 0.00 0.00 0.00 37 1003.5
20260905101533 68 194 8.0 15.0 0.00 0.00 0.00 38 1003.5
20260905100019 69 201 6.0 16.0 0.00 0.00 0.00 37 1003.3
20260905094506 70 184 7.0 16.0 0.00 0.00 0.00 34 1003.2
20260905093003 70 172 10.0 20.0 0.00 0.00 0.00 28 1002.9
20260905091616 71 164 14.0 28.0 0.00 0.00 0.00 29 1002.9
20260905090047 71 184 15.0 28.0 0.00 0.00 0.00 29 1002.7
20260905084554 70 178 14.0 21.0 0.00 0.00 0.00 30 1002.4
20260905083028 70 178 12.0 20.0 0.00 0.00 0.00 31 1002.2
20260905081521 70 175 10.0 18.0 0.00 0.00 0.00 32 1002.3
20260905080031 70 189 9.0 19.0 0.00 0.00 0.00 31 1002.2
20260905074506 70 186 9.0 14.0 0.00 0.00 0.00 31 1002.2
20260905073104 71 174 10.0 17.0 0.00 0.00 0.00 31 1001.8
20260905071502 71 227 8.0 19.0 0.00 0.00 0.00 31 1001.9
20260905070107 72 194 7.0 16.0 0.00 0.00 0.00 30 1001.6
20260905064513 72 161 11.0 19.0 0.00 0.00 0.00 30 1001.3
20260905063003 72 195 7.0 17.0 0.00 0.00 0.00 31 1001.2
20260905061611 73 202 6.0 17.0 0.00 0.00 0.00 31 1000.8
20260905060042 73 202 8.0 16.0 0.00 0.00 0.00 29 1000.7
20260905054546 74 189 9.0 16.0 0.00 0.00 0.00 28 1000.6
20260905053038 74 186 9.0 20.0 0.00 0.00 0.00 28 1000.4
20260905051619 75 193 11.0 18.0 0.00 0.00 0.00 27 1000.3
20260905050111 75 178 10.0 24.0 0.00 0.00 0.00 26 1000.1
20260905044553 75 175 11.0 21.0 0.00 0.00 0.00 25 1000.2
20260905043054 75 173 8.0 20.0 0.00 0.00 0.00 25 1000.2
20260905041502 75 205 9.0 17.0 0.00 0.00 0.00 24 1000.1
20260905040056 75 176 9.0 16.0 0.00 0.00 0.00 24 1000.0
20260905034548 75 174 9.0 16.0 0.00 0.00 0.00 24 999.8
20260905033049 75 209 9.0 17.0 0.00 0.00 0.00 25 999.8
20260905031545 76 188 6.0 14.0 0.00 0.00 0.00 26 999.7
20260905030046 77 163 5.0 8.0 0.00 0.00 0.00 26 999.5
20260905024530 78 178 5.0 11.0 0.00 0.00 0.00 25 999.2
20260905023028 79 175 5.0 11.0 0.00 0.00 0.00 24 999.1
20260905021513 79 192 8.0 18.0 0.00 0.00 0.00 24 998.8
20260905020011 80 184 11.0 20.0 0.00 0.00 0.00 23 998.6
20260905014503 81 178 10.0 19.0 0.00 0.00 0.00 23 998.6
20260905013001 82 183 15.0 30.0 0.00 0.00 0.00 22 998.6
20260905011508 82 179 13.0 28.0 0.00 0.00 0.00 22 998.7
20260905010107 83 172 15.0 27.0 0.00 0.00 0.00 22 998.8
20260905004547 83 162 19.0 37.0 0.00 0.00 0.00 21 998.7
20260905003039 84 229 19.0 28.0 0.00 0.00 0.00 21 998.7
20260905001527 84 186 20.0 31.0 0.00 0.00 0.00 20 999.1
20260905000019 84 181 18.0 31.0 0.00 0.00 0.00 19 998.7
20260904234522 85 186 22.0 35.0 0.00 0.00 0.00 18 998.9
20260904233009 85 182 17.0 31.0 0.00 0.00 0.00 18 998.9
20260904231502 85 225 18.0 31.0 0.00 0.00 0.00 18 999.0
20260904224602 86 150 20.0 32.0 0.00 0.00 0.00 17 999.1
20260904223036 86 178 20.0 34.0 0.00 0.00 0.00 17 999.3
20260904221533 86 171 18.0 47.0 0.00 0.00 0.00 16 999.4
20260904220020 86 225 22.0 35.0 0.00 0.00 0.00 16 999.7
20260904214512 87 167 20.0 39.0 0.00 0.00 0.00 16 1000.0
20260904213002 86 155 18.0 28.0 0.00 0.00 0.00 17 1000.1
20260904211557 86 148 21.0 32.0 0.00 0.00 0.00 16 1000.3
20260904210041 85 155 22.0 36.0 0.00 0.00 0.00 16 1000.5
20260904204531 85 161 21.0 40.0 0.00 0.00 0.00 17 1000.4
20260904203032 85 162 22.0 42.0 0.00 0.00 0.00 16 1000.6
20260904201521 85 201 16.0 44.0 0.00 0.00 0.00 17 1000.8
20260904200015 84 179 17.0 34.0 0.00 0.00 0.00 18 1001.0
20260904194502 84 186 17.0 37.0 0.00 0.00 0.00 19 1001.1
20260904193103 84 231 18.0 39.0 0.00 0.00 0.00 18 1001.2
20260904191545 84 142 22.0 33.0 0.00 0.00 0.00 18 1001.2
20260904190044 83 171 17.0 33.0 0.00 0.00 0.00 18 1001.4
20260904184634 82 170 16.0 35.0 0.00 0.00 0.00 20 1001.6
20260904183024 82 173 18.0 37.0 0.00 0.00 0.00 20 1001.7
20260904181514 81 197 15.0 34.0 0.00 0.00 0.00 22 1001.8
20260904180004 81 182 14.0 26.0 0.00 0.00 0.00 26 1001.8
20260904174501 80 165 13.0 42.0 0.00 0.00 0.00 24 1001.9
20260904173103 79 175 14.0 31.0 0.00 0.00 0.00 27 1002.1
20260904171552 78 149 22.0 39.0 0.00 0.00 0.00 25 1002.1
20260904170046 77 170 21.0 34.0 0.00 0.00 0.00 25 1002.1
20260904164532 76 181 26.0 38.0 0.00 0.00 0.00 27 1002.0
20260904163028 75 170 18.0 30.0 0.00 0.00 0.00 29 1002.2
20260904161514 74 156 13.0 23.0 0.00 0.00 0.00 29 1002.3
20260904160019 73 159 13.0 22.0 0.00 0.00 0.00 29 1002.3
20260904154508 72 108 10.0 25.0 0.00 0.00 0.00 30 1002.2
20260904153059 71 101 10.0 21.0 0.00 0.00 0.00 30 1002.3
20260904151546 70 170 7.0 19.0 0.00 0.00 0.00 31 1002.4
20260904150048 69 159 13.0 22.0 0.00 0.00 0.00 28 1002.3
20260904144537 68 156 5.0 12.0 0.00 0.00 0.00 31 1002.4
20260904143026 67 162 10.0 17.0 0.00 0.00 0.00 30 1002.3
20260904141522 67 186 11.0 14.0 0.00 0.00 0.00 30 1002.3
20260904140108 66 165 9.0 12.0 0.00 0.00 0.00 29 1002.2
20260904134605 65 153 8.0 12.0 0.00 0.00 0.00 28 1002.3
20260904133052 65 163 10.0 20.0 0.00 0.00 0.00 25 1002.0
20260904131540 65 153 11.0 18.0 0.00 0.00 0.00 25 1001.9
20260904130045 65 161 8.0 15.0 0.00 0.00 0.00 23 1001.8
20260904124537 66 180 7.0 16.0 0.00 0.00 0.00 22 1001.7